INMARSAT 4-F3

Last updated on Sun Apr 12 2026 00:02:51 GMT+0000 (Coordinated Universal Time)

1 33278U 08039A 26101.42994161 -.00000136 00000+0 00000+0 0 9998 2 33278 4.2369 31.3650 0002923 356.2539 228.8198 1.00271695 45879
UTC large
Height (km)
Speed (km/s)
/
Latitude / Longitude
Inclination (degrees)
Orbital Period (minutes)
Azimuth
Elevation
Range (km)
Doppler Factor

Next 0 passes for location: London (51.5072 / 0.1276)

Sorry there are no passes over London.
INMARSAT 4-F3